Regional Weather Roundup
Issued by NWS Upton, NY

Current Version | Previous Version | Graphics & Text | Print | Product List | Glossary Off
Versions: 1 2 3 4 5 6 7 8 9 10 11 12 13 14 15 16 17 18 19 20 21 22 23 24 25 26 27 28 29 30 31 32 33 34 35 36 37 38 39 40 41 42 43 44 45 46 47 48 49 50

874
ASUS41 KOKX 200108
RWROKX

REGIONAL WEATHER ROUNDUP
NATIONAL WEATHER SERVICE NEW YORK NY
800 PM EST THU JAN 19 2017

NOTE: "FAIR" INDICATES FEW OR NO CLOUDS BELOW 12,000 FEET WITH NO
SIGNIFICANT WEATHER AND/OR OBSTRUCTIONS TO VISIBILITY.

NYZ071-072-176-178-NJZ106-104-200200-
NEW YORK CITY METRO AREA

CITY           SKY/WX    TMP DP  RH WIND       PRES   REMARKS
Central Park   CLOUDY    43  32  65 W5        30.06S
Wall St Helipt CLOUDY    43  33  68 W6        30.06R
Bronx Bot Gard NOT AVBL
LaGuardia APRT CLOUDY    44  32  62 NW9       30.04S
Kennedy INTL   MOCLDY    45  30  55 NW10      30.05S
Breezy Point     N/A     41 N/A N/A NW7         N/A
Newark/Liberty MOCLDY    43  32  65 W7        30.05R
Teterboro      CLOUDY    43  33  68 W7        30.04R
$$

NYZ177-179-078>081-200200-
LONG ISLAND NEW YORK

CITY           SKY/WX    TMP DP  RH WIND       PRES   REMARKS
Jones Beach      N/A     41 N/A N/A NW5         N/A
Matinecock PT  NOT AVBL
Farmingdale    CLOUDY    43  34  70 W5        30.04R
MacArthur/ISP  CLOUDY    43  35  73 W3        30.03R
Shirley        CLOUDY    41  36  82 CALM      30.04R
Westhampton    CLOUDY    33  30  88 CALM      30.04R
Southampton    NOT AVBL
Bridgehampton  NOT AVBL
East Hampton   CLOUDY    40  34  77 N3        30.03R
Montauk          N/A     44  35  70 N9        30.04R
$$

NYZ052-065-067-200200-
HUDSON VALLEY

CITY           SKY/WX    TMP DP  RH WIND       PRES   REMARKS
White Plains   MOCLDY    41  33  73 NW6       30.02R
Newburgh       NOT AVBL
Montgomery     CLOUDY    42  32  67 N3        30.02S
Poughkeepsie   CLOUDY    40  32  73 VRB3      30.03S
Albany         CLOUDY    37  31  78 W13       30.05R WCI  29
$$

NJZ001-105-106-008-010-013-015-019>022-104-200200-
NEW JERSEY

CITY           SKY/WX    TMP DP  RH WIND       PRES   REMARKS
Newark/Liberty MOCLDY    43  32  65 W7        30.05R
Teterboro      CLOUDY    43  33  68 W7        30.04R
Caldwell       CLOUDY    35  31  85 CALM      30.06R
Somerville       N/A     43  32  65 N6        30.02F
Linden           N/A     40  32  73 CALM      30.05S
Sussex         PTCLDY    29  29 100 CALM      30.03S
Andover          N/A     39  31  72 CALM      30.03F
Trenton        CLOUDY    40  33  76 CALM      30.03S
Millville      CLOUDY    34  33  96 CALM      30.03R
Atlantic City  CLOUDY    39  33  79 NE5       30.03F
Wrightstown    CLOUDY    35  31  84 CALM      30.00F
Toms River     CLOUDY    38  33  82 CALM      30.04F
Belmar         PTCLDY    41  34  76 N6        30.04F
$$

PAZ047>061-062-071-200200-
EASTERN PENNSYLVANIA

CITY           SKY/WX    TMP DP  RH WIND       PRES   REMARKS
Philadelphia   CLOUDY    41  33  73 NE6       30.03F
Allentown      CLOUDY    37  31  78 NE5       30.03F WCI  33
Scranton       CLOUDY    39  33  79 NE3       30.02F
$$

CTZ002-004>006-009-010-012-RIZ004-006-007-MAZ004-011-015-200200-
SOUTHERN NEW ENGLAND
 IN CT

CITY           SKY/WX    TMP DP  RH WIND       PRES   REMARKS
Bradley INTL   CLOUDY    41  32  70 NW6       30.03R
Hartford       CLOUDY    42  32  67 NW5       30.04R
Danbury        CLOUDY    41  31  67 N6        30.04R
Wtrbury/Oxford MOCLDY    39  28  65 N12       30.03R WCI  32
Bridgeport     CLOUDY    45  32  60 N8        30.03S
Meriden        CLOUDY    43  30  60 NW8       30.04R
New Haven      CLOUDY    43  31  62 N6        30.03R
Chester        CLOUDY    41  32  70 NW7       30.02S
Groton         CLOUDY    44  32  62 NW7       30.03R
Wilimantic     CLOUDY    43  33  68 CALM      30.03R

 IN RI

CITY           SKY/WX    TMP DP  RH WIND       PRES   REMARKS
Providence     CLOUDY    44  31  60 NW6       30.02R
Block Island   NOT AVBL
Westerly       CLOUDY    44  31  60 CALM      30.03R
 IN MA

CITY           SKY/WX    TMP DP  RH WIND       PRES   REMARKS
Boston         CLOUDY    42  32  67 N12G18    30.01S
Worcester      CLOUDY    37  29  72 NW7       29.98R WCI  32
Westfield      CLOUDY    39  33  79 NW6       30.02R WCI  35
Provincetown   CLOUDY    42  33  70 NW10      30.00S
Nantucket      CLEAR     38  33  82 NW9       29.99R WCI  31
$$

ANZ330-335-338-340-345-350-353-355-200200-
COASTAL MARINE OBSERVATIONS


STATION/POSITION TIME  SKY/WX   TEMP    WIND        PRES    VSBY  WAVE
                                AIR SEA DIR/SP/G                  HT/PER
                 (UTC)          (F)     (DEG/KT/KT) (MB)    (MI)  (FT/S)
NY HARB ENTRANCE 2350            44 44  300/ 10/ 12 1017.2          4/11
20 S FIRE ISLAND 2350            44 45  310/ 12/ 14 1016.6          6/10
GREAT SOUTH BAY  NOT AVBL
23 SSW MONTAUK P 2350            45 48  290/  8/ 12 1016.5          5/ 9
15 E BARNEGAT LI 0030               48                N/A           5/11
HUDSON CANYON    2350            48 51              1016.4          7/10
KINGS POINT      0030            42 39              1017.1
EXECUTION ROCKS  0045            42     260/  6/  8   N/A
CENTRAL LI SOUND 0030            43     340/ 10/ 10   N/A           1
EASTERN LI SOUND NOT AVBL
ROBBINS REEF     0030            43     300/ 10/ 12 1017.7
$$


>>>>>>>>>>>>>>>>>>>>>>>>>>>> KEY <<<<<<<<<<<<<<<<<<<<<<<<<<<
>                                                          <
>     SKY/WX - Sky Condition/Present Weather               <
>     TMP    - Temperature in Fahrenheit                   <
>     DP     - Dew Point in Fahrenheit                     <
>     RH     - Relative Humidity in Percent                <
>     WIND   - Direction (from) and Speed in MPH           <
>     PRES   - Mean Sea Level Pressure (inches of Hg)      <
>     WCI    - Wind Chill Index                            <
>     VSB    - VISIBILITY IN MILES                         <
>     HX     - HEAT INDEX                                  <
>     TC     - TEMPERATURE IN CELSIUS                      <
>     VRB    - VARIABLE WIND DIRECTION                     <
>                                                          <
>>>>>>>>>>>>>>>>>>>>>>>>>>>> KEY <<<<<<<<<<<<<<<<<<<<<<<<<<<




USA.gov is the U.S. government's official web portal to all federal, state and local government web resources and services.